DW9029 Weather Reports


Display with metric or nautical units.
time (UTC)temp
F
wind
direction
speed
MPH
gust
MPH
rain 1hr
in
rain 24hr
in
rain mn
in
humidity
%
barometer
mb
20200707154903 104 171 3.0 7.0 0.00 0.00 0.00 21 1009.5
20200707154404 104 159 3.0 8.0 0.00 0.00 0.00 20 1009.5
20200707153903 104 142 3.0 12.0 0.00 0.00 0.00 20 1009.5
20200707153403 104 170 2.0 7.0 0.00 0.00 0.00 21 1009.6
20200707151903 104 132 4.0 9.0 0.00 0.00 0.00 20 1009.8
20200707151403 104 142 2.0 8.0 0.00 0.00 0.00 20 1009.7
20200707150903 104 124 6.0 10.0 0.00 0.00 0.00 20 1009.8
20200707150403 104 155 2.0 10.0 0.00 0.00 0.00 20 1009.8
20200707144903 104 138 5.0 9.0 0.00 0.00 0.00 20 1010.0
20200707144403 104 154 3.0 10.0 0.00 0.00 0.00 20 1010.1
20200707143903 103 141 4.0 8.0 0.00 0.00 0.00 21 1010.2
20200707143403 103 128 2.0 10.0 0.00 0.00 0.00 21 1010.3
20200707141903 103 198 4.0 9.0 0.00 0.00 0.00 21 1010.5
20200707141403 103 169 3.0 8.0 0.00 0.00 0.00 21 1010.5
20200707140903 103 139 2.0 8.0 0.00 0.00 0.00 21 1010.6
20200707140403 103 207 2.0 10.0 0.00 0.00 0.00 20 1010.6
20200707134904 104 172 6.0 12.0 0.00 0.00 0.00 20 1010.8
20200707134403 104 146 2.0 8.0 0.00 0.00 0.00 21 1010.8
20200707133903 103 165 2.0 6.0 0.00 0.00 0.00 21 1010.9
20200707133403 103 159 3.0 8.0 0.00 0.00 0.00 21 1011.0
20200707131903 103 173 3.0 6.0 0.00 0.00 0.00 21 1011.2
20200707131403 102 164 3.0 7.0 0.00 0.00 0.00 21 1011.2
20200707130903 102 200 3.0 8.0 0.00 0.00 0.00 21 1011.2
20200707130403 102 204 2.0 9.0 0.00 0.00 0.00 23 1011.2
20200707124903 101 121 5.0 8.0 0.00 0.00 0.00 26 1011.2
20200707124403 101 153 3.0 7.0 0.00 0.00 0.00 25 1011.3
20200707123903 101 123 2.0 8.0 0.00 0.00 0.00 25 1011.3
20200707123403 101 121 3.0 6.0 0.00 0.00 0.00 26 1011.4
20200707121904 100 273 3.0 5.0 0.00 0.00 0.00 24 1011.8
20200707121403 101 246 0.0 0.0 0.00 0.00 0.00 25 1011.8
20200707120902 100 43 0.0 0.0 0.00 0.00 0.00 25 1011.8
20200707120403 99 201 0.0 0.0 0.00 0.00 0.00 25 1011.9
20200707114903 99 283 0.0 0.0 0.00 0.00 0.00 24 1012.0
20200707114403 98 235 0.0 0.0 0.00 0.00 0.00 24 1012.1
20200707113903 98 257 0.0 0.0 0.00 0.00 0.00 25 1012.1
20200707113403 98 249 0.0 0.0 0.00 0.00 0.00 25 1012.2
20200707111903 97 248 0.0 0.0 0.00 0.00 0.00 27 1012.3
20200707111403 97 191 0.0 0.0 0.00 0.00 0.00 27 1012.3
20200707110903 96 278 0.0 0.0 0.00 0.00 0.00 27 1012.3
20200707110404 96 262 0.0 0.0 0.00 0.00 0.00 27 1012.4
20200707104903 95 225 0.0 0.0 0.00 0.00 0.00 29 1012.3
20200707104403 95 222 0.0 0.0 0.00 0.00 0.00 30 1012.4
20200707103903 95 32 0.0 0.0 0.00 0.00 0.00 31 1012.4
20200707103403 94 30 0.0 0.0 0.00 0.00 0.00 32 1012.4
20200707101903 92 40 0.0 0.0 0.00 0.00 0.00 35 1012.5
20200707101403 91 40 0.0 0.0 0.00 0.00 0.00 35 1012.4
20200707100903 91 39 0.0 0.0 0.00 0.00 0.00 36 1012.4
20200707100403 90 39 0.0 0.0 0.00 0.00 0.00 37 1012.4
20200707094903 89 67 0.0 0.0 0.00 0.00 0.00 39 1012.3
20200707094404 89 61 0.0 0.0 0.00 0.00 0.00 40 1012.3
20200707093903 89 40 0.0 0.0 0.00 0.00 0.00 40 1012.3
20200707093403 88 8 0.0 0.0 0.00 0.00 0.00 41 1012.3
20200707091913 87 33 0.0 0.0 0.00 0.00 0.00 41 1012.3
20200707091403 87 24 0.0 0.0 0.00 0.00 0.00 39 1012.4
20200707090903 86 22 0.0 0.0 0.00 0.00 0.00 40 1012.4
20200707090403 86 22 0.0 0.0 0.00 0.00 0.00 43 1012.4
20200707084903 84 24 0.0 0.0 0.00 0.00 0.00 45 1012.2
20200707084403 84 8 0.0 0.0 0.00 0.00 0.00 46 1012.2
20200707083903 83 35 0.0 0.0 0.00 0.00 0.00 46 1012.2
20200707083403 83 24 0.0 0.0 0.00 0.00 0.00 45 1012.3
20200707081903 83 24 0.0 0.0 0.00 0.00 0.00 47 1012.3
20200707081403 83 40 0.0 0.0 0.00 0.00 0.00 46 1012.3
20200707080903 83 53 0.0 0.0 0.00 0.00 0.00 47 1012.3
20200707080403 83 42 0.0 0.0 0.00 0.00 0.00 46 1012.3
20200707074903 82 26 0.0 0.0 0.00 0.00 0.00 48 1012.3
20200707074403 82 30 0.0 0.0 0.00 0.00 0.00 48 1012.3
20200707073903 82 28 0.0 0.0 0.00 0.00 0.00 49 1012.2
20200707073403 82 28 0.0 0.0 0.00 0.00 0.00 49 1012.2
20200707071903 80 9 0.0 0.0 0.00 0.00 0.00 50 1012.2
20200707071403 80 329 0.0 1.0 0.00 0.00 0.00 49 1012.1
20200707070903 80 350 0.0 0.0 0.00 0.00 0.00 50 1012.0
20200707070403 80 349 0.0 0.0 0.00 0.00 0.00 51 1012.0
20200707064903 79 348 0.0 1.0 0.00 0.00 0.00 52 1011.9
20200707064403 79 354 0.0 0.0 0.00 0.00 0.00 52 1012.0
20200707063903 78 0 0.0 0.0 0.00 0.00 0.00 53 1012.0
20200707063403 78 0 0.0 0.0 0.00 0.00 0.00 54 1012.0
20200707061903 77 0 0.0 0.0 0.00 0.00 0.00 54 1012.0
20200707061404 77 0 0.0 0.0 0.00 0.00 0.00 54 1011.9
20200707060903 77 0 0.0 0.0 0.00 0.00 0.00 54 1011.9
20200707060403 76 0 0.0 0.0 0.00 0.00 0.00 55 1011.8
20200707054904 76 348 0.0 0.0 0.00 0.00 0.00 55 1011.7
20200707054403 76 355 0.0 0.0 0.00 0.00 0.00 55 1011.7
20200707053903 76 355 0.0 1.0 0.00 0.00 0.00 54 1011.7
20200707053403 76 342 0.0 0.0 0.00 0.00 0.00 54 1011.7
20200707051904 76 329 0.0 0.0 0.00 0.00 0.00 53 1011.5
20200707051403 76 330 0.0 0.0 0.00 0.00 0.00 53 1011.5
20200707050903 76 57 0.0 0.0 0.00 0.00 0.00 53 1011.5
20200707050403 76 331 0.0 0.0 0.00 0.00 0.00 53 1011.5
20200707044903 76 331 0.0 0.0 0.00 0.00 0.00 53 1011.3
20200707044403 76 331 0.0 0.0 0.00 0.00 0.00 52 1011.4
20200707043903 76 331 0.0 0.0 0.00 0.00 0.00 52 1011.4
20200707043403 76 331 0.0 0.0 0.00 0.00 0.00 52 1011.4
20200707041904 76 331 0.0 0.0 0.00 0.00 0.00 54 1011.4
20200707041403 76 331 0.0 0.0 0.00 0.00 0.00 55 1011.4
20200707040904 76 331 0.0 0.0 0.00 0.00 0.00 60 1011.3
20200707040404 76 331 0.0 0.0 0.00 0.00 0.00 60 1011.3
20200707034903 77 238 0.0 0.0 0.00 0.00 0.00 61 1011.3
20200707034403 77 235 0.0 0.0 0.00 0.00 0.00 61 1011.3
20200707033903 76 234 0.0 0.0 0.00 0.00 0.00 60 1011.4
20200707033403 76 233 0.0 0.0 0.00 0.00 0.00 61 1011.4
20200707031903 77 213 0.0 0.0 0.00 0.00 0.00 63 1011.3
20200707031403 77 213 0.0 0.0 0.00 0.00 0.00 63 1011.3
20200707030904 77 213 0.0 0.0 0.00 0.00 0.00 61 1011.3
20200707030403 77 213 0.0 0.0 0.00 0.00 0.00 59 1011.3
20200707024903 77 213 0.0 0.0 0.00 0.00 0.00 61 1011.4
20200707024403 77 211 0.0 0.0 0.00 0.00 0.00 62 1011.4
20200707023903 76 178 0.0 0.0 0.00 0.00 0.00 59 1011.4
20200707023403 77 178 0.0 0.0 0.00 0.00 0.00 63 1011.5
20200707021903 77 169 0.0 0.0 0.00 0.00 0.00 64 1011.5
20200707021403 77 175 0.0 0.0 0.00 0.00 0.00 64 1011.5
20200707020903 77 175 0.0 0.0 0.00 0.00 0.00 65 1011.5
20200707020404 77 175 0.0 0.0 0.00 0.00 0.00 65 1011.5
20200707014903 76 175 0.0 0.0 0.00 0.00 0.00 65 1011.5
20200707014404 76 175 0.0 0.0 0.00 0.00 0.00 64 1011.5
20200707013903 77 175 0.0 0.0 0.00 0.00 0.00 65 1011.6
20200707013403 77 175 0.0 0.0 0.00 0.00 0.00 63 1011.6
20200707011903 78 175 0.0 0.0 0.00 0.00 0.00 57 1011.7
20200707011403 79 176 0.0 0.0 0.00 0.00 0.00 55 1011.7
20200707010903 78 176 0.0 0.0 0.00 0.00 0.00 54 1011.6
20200707010403 78 176 0.0 0.0 0.00 0.00 0.00 56 1011.7
20200707004904 78 171 0.0 0.0 0.00 0.00 0.00 59 1011.8
20200707004403 78 168 0.0 0.0 0.00 0.00 0.00 59 1011.8
20200707003904 78 169 0.0 0.0 0.00 0.00 0.00 58 1011.9
20200707003403 78 162 0.0 0.0 0.00 0.00 0.00 58 1011.9
20200707001903 79 160 0.0 0.0 0.00 0.00 0.00 57 1011.9
20200707001404 79 157 0.0 0.0 0.00 0.00 0.00 55 1011.9
20200707000904 79 170 0.0 0.0 0.00 0.00 0.00 54 1011.8
20200707000404 79 162 0.0 0.0 0.00 0.00 0.00 54 1011.8
20200706234903 79 171 0.0 0.0 0.00 0.00 0.00 57 1011.8
20200706234403 80 170 0.0 0.0 0.00 0.00 0.00 56 1011.8
20200706233903 80 170 0.0 0.0 0.00 0.00 0.00 55 1011.9
20200706233404 80 169 0.0 0.0 0.00 0.00 0.00 54 1011.9
20200706231904 80 165 0.0 0.0 0.00 0.00 0.00 50 1011.9
20200706231403 80 163 0.0 0.0 0.00 0.00 0.00 50 1011.9
20200706230903 80 160 0.0 0.0 0.00 0.00 0.00 52 1011.9
20200706230403 80 155 0.0 0.0 0.00 0.00 0.00 52 1012.0
20200706224903 81 155 0.0 0.0 0.00 0.00 0.00 50 1011.9
20200706224403 81 155 0.0 0.0 0.00 0.00 0.00 49 1012.0
20200706223903 81 155 0.0 0.0 0.00 0.00 0.00 48 1011.9
20200706223403 81 155 0.0 0.0 0.00 0.00 0.00 47 1011.9
20200706221903 83 131 0.0 0.0 0.00 0.00 0.00 42 1011.8
20200706221404 84 131 0.0 0.0 0.00 0.00 0.00 38 1011.8
20200706220903 85 153 0.0 0.0 0.00 0.00 0.00 35 1011.8
20200706220403 85 155 0.0 0.0 0.00 0.00 0.00 32 1011.8
20200706214903 86 177 0.0 0.0 0.00 0.00 0.00 32 1011.7
20200706214403 87 173 0.0 0.0 0.00 0.00 0.00 32 1011.7
20200706213903 88 173 0.0 0.0 0.00 0.00 0.00 32 1011.7
20200706213403 89 173 0.0 0.0 0.00 0.00 0.00 31 1011.7
20200706211903 89 244 0.0 0.0 0.00 0.00 0.00 28 1011.7
20200706211403 89 228 0.0 0.0 0.00 0.00 0.00 28 1011.6
20200706210903 89 252 0.0 0.0 0.00 0.00 0.00 28 1011.5
20200706210403 89 262 0.0 0.0 0.00 0.00 0.00 29 1011.5
20200706204903 90 256 0.0 0.0 0.00 0.00 0.00 29 1011.3
20200706204403 90 325 0.0 0.0 0.00 0.00 0.00 29 1011.2
20200706203904 90 302 0.0 2.0 0.00 0.00 0.00 29 1011.1
20200706203403 91 292 1.0 14.0 0.00 0.00 0.00 29 1010.9
20200706201904 92 248 8.0 14.0 0.00 0.00 0.00 28 1010.6
20200706201404 92 251 7.0 12.0 0.00 0.00 0.00 28 1010.5
20200706200903 92 257 8.0 12.0 0.00 0.00 0.00 28 1010.5
20200706200404 93 263 7.0 12.0 0.00 0.00 0.00 28 1010.4
20200706194904 94 260 2.0 12.0 0.00 0.00 0.00 26 1010.2
20200706194404 94 253 6.0 15.0 0.00 0.00 0.00 26 1010.2
20200706193904 94 262 10.0 15.0 0.00 0.00 0.00 25 1010.1
20200706193403 95 261 9.0 14.0 0.00 0.00 0.00 26 1010.1
20200706191903 96 260 4.0 12.0 0.00 0.00 0.00 27 1010.0
20200706191403 97 258 6.0 13.0 0.00 0.00 0.00 26 1010.0
20200706190903 97 239 3.0 12.0 0.00 0.00 0.00 26 1009.9
20200706190403 97 250 2.0 15.0 0.00 0.00 0.00 26 1010.0
20200706184903 98 248 8.0 15.0 0.00 0.00 0.00 25 1009.9
20200706184403 99 249 8.0 15.0 0.00 0.00 0.00 25 1009.9
20200706183904 99 248 7.0 17.0 0.00 0.00 0.00 24 1009.9
20200706183404 99 255 9.0 18.0 0.00 0.00 0.00 24 1009.9
20200706181904 101 248 2.0 7.0 0.00 0.00 0.00 23 1009.8
20200706181404 101 237 3.0 14.0 0.00 0.00 0.00 23 1009.8
20200706180903 102 248 5.0 14.0 0.00 0.00 0.00 22 1009.8
20200706180404 102 170 4.0 13.0 0.00 0.00 0.00 21 1009.8
20200706174904 103 209 1.0 6.0 0.00 0.00 0.00 21 1009.7
20200706174403 103 210 5.0 9.0 0.00 0.00 0.00 21 1009.7
20200706173903 103 227 3.0 7.0 0.00 0.00 0.00 22 1009.7
20200706173403 103 265 4.0 12.0 0.00 0.00 0.00 22 1009.7
20200706171903 104 221 5.0 12.0 0.00 0.00 0.00 21 1009.8
20200706171403 104 220 3.0 8.0 0.00 0.00 0.00 17 1009.8
20200706170904 104 224 2.0 6.0 0.00 0.00 0.00 17 1009.8
20200706170404 104 202 5.0 8.0 0.00 0.00 0.00 18 1009.8
20200706164903 104 163 1.0 5.0 0.00 0.00 0.00 18 1010.0
20200706164404 105 171 2.0 7.0 0.00 0.00 0.00 17 1010.0
20200706163904 104 202 1.0 5.0 0.00 0.00 0.00 18 1010.0
20200706163403 104 199 1.0 7.0 0.00 0.00 0.00 20 1010.1
20200706161903 104 188 3.0 7.0 0.00 0.00 0.00 21 1010.2
20200706161403 104 168 2.0 6.0 0.00 0.00 0.00 18 1010.3
20200706160904 104 180 3.0 6.0 0.00 0.00 0.00 19 1010.3
20200706160404 104 115 3.0 8.0 0.00 0.00 0.00 19 1010.4